This is the latest recevied weather packets stored in our database for station/object KB4MLW-13. If no packets are shown the sender has not sent any weather packets the latest 10 day(s).
| Time | Temp. | Humidity | Pressure | Rain* | Wind** | Luminosity | Snow |
|---|---|---|---|---|---|---|---|
| 1788192479 | 32.22° C | 65% | 1003.6 hPa | 0 mm | - | - | - |
| 1788192418 | 32.22° C | 64% | 1003.5 hPa | 0 mm | - | - | - |
| 1788192358 | 32.22° C | 64% | 1003.8 hPa | 0 mm | - | - | - |
| 1788192269 | 31.67° C | 69% | 1003.7 hPa | 0 mm | - | - | - |
| 1788192208 | 31.67° C | 68% | 1003.5 hPa | 0 mm | - | - | - |
| 1788192118 | 31.67° C | 68% | 1003.4 hPa | 0 mm | - | - | - |
| 1788192028 | 31.67° C | 66% | 1003.6 hPa | 0 mm | - | - | - |
| 1788191968 | 31.67° C | 66% | 1003.7 hPa | 0 mm | - | - | - |
| 1788191908 | 32.22° C | 65% | 1003.5 hPa | 0 mm | - | - | - |
| 1788191848 | 31.67° C | 64% | 1003.7 hPa | 0 mm | - | - | - |
| 1788191788 | 31.67° C | 67% | 1003.8 hPa | 0 mm | - | - | - |
| 1788191728 | 31.67° C | 66% | 1003.7 hPa | 0 mm | - | - | - |
| 1788191668 | 31.67° C | 66% | 1003.7 hPa | 0 mm | - | - | - |
| 1788191608 | 31.67° C | 67% | 1003.8 hPa | 0 mm | - | - | - |
| 1788191519 | 32.22° C | 69% | 1003.6 hPa | 0 mm | - | - | - |
| 1788191458 | 32.22° C | 69% | 1003.7 hPa | 0 mm | - | - | - |
| 1788191398 | 32.22° C | 68% | 1003.5 hPa | 0 mm | - | - | - |
| 1788191338 | 32.22° C | 68% | 1003.5 hPa | 0 mm | - | - | - |
| 1788191189 | 32.22° C | 66% | 1003.8 hPa | 0 mm | - | - | - |
| 1788191128 | 32.22° C | 67% | 1003.6 hPa | 0 mm | - | - | - |
| 1788191068 | 31.67° C | 68% | 1003.7 hPa | 0 mm | - | - | - |
| 1788191008 | 31.67° C | 69% | 1003.6 hPa | 0 mm | - | - | - |
| 1788190948 | 31.67° C | 68% | 1003.7 hPa | 0 mm | - | - | - |
| 1788190859 | 31.67° C | 68% | 1003.7 hPa | 0 mm | - | - | - |
| 1788190798 | 31.11° C | 70% | 1003.5 hPa | 0 mm | - | - | - |
* Rain latest hour (hover to see other rain measurements)
** Current wind speed in m/s (hover to see current wind gust speed)